Kissimmee, FL

2:48 PM EST on December 05, 2019 (GMT -0500)
Kissimmee Municipal

Weather History for KISM - September, 2019

Change the Weather History Date:

Friday, September 20, 2019

  Actual Average Record
Temperature  
Mean Temperature 80 °F -  
Max Temperature 87 °F 89 °F 94 °F (1980)
Min Temperature 73 °F 70 °F 56 °F (1981)
Cooling Degree Days 15    
Growing Degree Days 30 (Base 50)    
Moisture  
Dew Point 68 °F    
Average Humidity 69    
Maximum Humidity 89    
Minimum Humidity 49    
Precipitation  
Precipitation 0.00 in - - ()
Sea Level Pressure  
Sea Level Pressure 30.10 in    
Wind  
Wind Speed 10 mph (ENE)    
Max Wind Speed 20 mph    
Max Gust Speed 26 mph    
Visibility 10 miles    
Events      
Averages and records for this station are not official NWS values.
T = Trace of Precipitation, MM = Missing Value Source: NWS Daily Summary

Daily Weather History Graph

Daily Weather History Graph

Search for Another Location

Airport or City:

Astronomy

Sep. 20, 2019 Rise Set
Actual Time 7:13 AM EDT 7:24 PM EDT
Civil Twilight 6:49 AM EDT 7:48 PM EDT
Nautical Twilight 6:22 AM EDT 8:15 PM EDT
Astronomical Twilight 5:54 AM EDT 8:43 PM EDT
Moon 11:42 PM EDT (9/20) 12:48 PM EDT (9/20)
Length of Visible Light 12h 58m
Length of Day
12h 11m
Waning Gibbous, 65% of the Moon is Illuminated
Sep 20
Waning Gibbous
Sep 21
Last Quarter
Sep 28
New
Oct 5
First Quarter
Oct 13
Full

Hourly Weather History & Observations

Time (EDT) Temp. Heat Index Dew Point Humidity Pressure Visibility Wind Dir Wind Speed Gust Speed Precip Events Conditions
12:56 AM 75.9 °F - 68.0 °F 76% 30.07 in 10.0 mi East 9.2 mph - N/A   Scattered Clouds
1:56 AM 75.0 °F - 66.9 °F 76% 30.06 in 10.0 mi NE 4.6 mph - N/A   Partly Cloudy
2:56 AM 73.9 °F - 69.1 °F 85% 30.05 in 10.0 mi North 5.8 mph - N/A   Clear
3:56 AM 73.9 °F - 69.1 °F 85% 30.04 in 10.0 mi ENE 9.2 mph - N/A   Mostly Cloudy
4:56 AM 73.9 °F - 70.0 °F 87% 30.04 in 10.0 mi NE 6.9 mph - N/A   Overcast
5:56 AM 73.9 °F - 70.0 °F 87% 30.06 in 10.0 mi NE 4.6 mph - N/A   Clear
6:56 AM 75.0 °F - 70.0 °F 84% 30.07 in 10.0 mi NE 5.8 mph - N/A   Overcast
7:48 AM 75.2 °F - 69.8 °F 83% 30.09 in 10.0 mi ESE 8.1 mph - N/A   Overcast
7:56 AM 75.0 °F - 70.0 °F 84% 30.10 in 10.0 mi East 8.1 mph - N/A   Overcast
8:22 AM 75.2 °F - 71.6 °F 89% 30.11 in 10.0 mi SE 9.2 mph - N/A   Overcast
8:56 AM 75.9 °F - 71.1 °F 85% 30.11 in 10.0 mi East 4.6 mph - N/A   Overcast
9:56 AM 81.0 °F 84.4 °F 70.0 °F 69% 30.12 in 10.0 mi ENE 13.8 mph - N/A   Mostly Cloudy
10:56 AM 82.9 °F 87.0 °F 70.0 °F 65% 30.13 in 10.0 mi ENE 15.0 mph - N/A   Mostly Cloudy
11:56 AM 84.9 °F 87.6 °F 66.9 °F 55% 30.13 in 10.0 mi East 19.6 mph 24.2 mph N/A   Mostly Cloudy
12:56 PM 84.9 °F 87.6 °F 66.9 °F 55% 30.12 in 10.0 mi East 19.6 mph 26.5 mph N/A   Overcast
1:56 PM 86.0 °F 88.8 °F 66.9 °F 53% 30.12 in 10.0 mi East 16.1 mph 24.2 mph N/A   Mostly Cloudy
2:09 PM 87.8 °F 90.4 °F 66.2 °F 49% 30.11 in 10.0 mi ENE 17.3 mph 25.3 mph N/A   Overcast
2:56 PM 84.9 °F 87.1 °F 66.0 °F 53% 30.11 in 10.0 mi East 16.1 mph - N/A   Overcast
3:56 PM 84.0 °F 86.3 °F 66.0 °F 55% 30.10 in 10.0 mi East 19.6 mph 23.0 mph N/A   Overcast
4:56 PM 84.0 °F 86.3 °F 66.0 °F 55% 30.10 in 10.0 mi East 17.3 mph 26.5 mph N/A   Overcast
5:56 PM 84.0 °F 85.8 °F 64.9 °F 53% 30.10 in 10.0 mi East 17.3 mph 25.3 mph N/A   Clear
6:56 PM 81.0 °F 82.2 °F 63.0 °F 54% 30.12 in 10.0 mi East 13.8 mph 23.0 mph N/A   Clear
7:56 PM 79.0 °F - 64.0 °F 60% 30.13 in 10.0 mi East 11.5 mph - N/A   Clear
8:56 PM 80.1 °F 81.9 °F 64.9 °F 60% 30.14 in 10.0 mi ENE 10.4 mph - N/A   Clear
9:56 PM 77.0 °F - 66.0 °F 69% 30.16 in 10.0 mi ENE 8.1 mph - N/A   Clear
10:56 PM 75.9 °F - 66.0 °F 71% 30.16 in 10.0 mi ENE 6.9 mph - N/A   Clear
11:56 PM 75.0 °F - 66.9 °F 76% 30.16 in 10.0 mi East 8.1 mph - N/A   Clear